Dewpoint
-0 -2 -2 -2 -3 -4 -4 -6 -8 -10 -11 -13 -15 -18 -19 -18 -10 -2 -1 -0 3 1 0 6 8 10 11 9 9 8 8 9 9 8 11 10 9 10 10 10 11 11 9 10 12
0 -1 -1 -2 -2 -3 -4 -5 -7 -9 -11 -13 -15 -18 -19 -19 -13 -4 -0 3 4 3 4 7 5 9 7 7 8 8 8 9 8 7 9 9 9 10 9 10 11 11 11 11 11
1 0 -1 -1 -2 -3 -4 -5 -6 -9 -11 -13 -15 -18 -19 -19 -10 -2 2 3 4 4 0 2 4 7 6 6 8 8 9 8 8 7 8 9 9 9 9 8 10 10 11 11 11
1 0 -0 -1 -2 -2 -3 -5 -7 -9 -11 -13 -16 -18 -19 -21 1 -4 2 3 3 4 1 3 5 6 6 6 8 9 9 8 9 8 8 9 9 8 9 8 9 10 11 11 11
1 1 0 -1 -1 -2 -3 -5 -7 -10 -11 -13 -17 -18 -18 -15 -8 -4 1 2 3 2 0 4 5 5 6 6 7 8 9 9 9 9 9 9 9 8 9 8 9 10 11 11 11
1 1 0 -0 -1 -2 -3 -5 -8 -11 -12 -14 -16 -18 -14 -15 -15 -2 -1 1 2 -0 2 2 4 5 5 5 7 8 9 9 9 9 9 9 9 8 10 9 10 11 11 11 11
1 1 0 -0 -1 -2 -3 -6 -9 -12 -13 -15 -16 -17 -7 -18 -14 -2 -2 -2 2 1 3 2 5 5 5 7 7 7 9 9 9 9 9 8 10 9 9 10 10 10 10 11 11
1 0 0 -0 -1 -2 -4 -6 -7 -10 -12 -13 -16 -17 -13 -22 -4 -2 -2 -0 2 1 3 3 4 5 6 7 7 6 6 9 10 9 9 9 11 9 9 9 10 9 10 10 11
-0 -0 -0 -0 -1 -2 -4 0 -1 -5 -9 -14 -13 -6 -18 -15 -4 -4 -3 -1 -1 1 2 2 5 5 6 6 6 6 7 8 9 8 9 9 10 9 9 10 9 9 10 10 11
-2 -1 -1 -1 -1 -2 -1 2 -2 -4 -12 -14 -14 -2 -11 -7 -4 -3 -2 -3 -2 1 1 2 2 3 3 3 8 6 6 8 8 9 8 10 9 9 9 10 10 10 10 10 10
-2 -2 -2 -1 -1 -2 2 2 3 2 -1 -9 -13 -9 -5 -4 -5 -4 -4 -4 -1 1 2 2 3 4 3 3 4 5 6 6 8 8 9 9 8 9 9 9 9 10 10 11 11
-1 -1 -3 -2 -2 -2 2 3 2 2 -0 -3 -2 -3 -3 -3 -4 -4 -5 -3 -0 2 0 2 3 2 1 2 4 4 4 7 8 8 9 9 9 9 9 9 9 10 10 10 10
1 -0 -4 -3 -2 -1 1 3 -0 2 2 -2 -4 -8 -5 -4 -5 -5 -4 -3 -1 1 1 2 2 1 1 3 2 2 4 6 7 7 8 7 11 10 9 9 9 9 9 9 9
1 -0 -3 -4 -3 -1 2 3 -0 2 -1 -6 -6 -10 -6 -4 -5 -5 -4 -4 -2 0 -1 0 1 1 1 2 0 3 4 6 6 5 6 6 7 9 10 10 10 9 9 9 9
-3 -2 -2 -3 -3 -1 2 -0 1 2 -7 -10 -8 -5 -7 -5 -6 -5 -6 -5 -2 -2 -2 0 -1 0 2 0 -1 3 4 5 6 4 5 6 3 8 9 11 10 9 8 8 8
-4 -5 -4 -3 -3 -3 -2 -1 2 0 -7 -8 -9 -7 -7 -6 -7 -6 -5 -6 -5 -3 -2 -2 -3 -1 -1 -1 -1 1 4 5 4 3 3 6 6 3 5 5 6 7 8 8 8
-7 -8 -5 -3 1 -2 -3 2 -1 -4 -7 -6 -8 -9 -8 -7 -8 -8 -6 -6 -4 -0 -0 -2 -2 -4 -4 -1 2 3 3 3 3 2 3 4 5 3 2 4 4 5 7 7 8
-8 -6 -3 -3 -3 -4 -0 1 -1 -9 -8 -8 -9 -9 -8 -9 -9 -9 -8 -8 -7 -6 -4 -1 0 -2 -3 -1 0 3 2 3 5 3 1 5 4 4 3 4 4 5 6 7 7
-4 -1 -1 -3 -6 -6 1 2 -5 -8 -4 -8 -9 -7 -7 -9 -8 -8 -9 -9 -7 -7 -4 -3 -1 -3 -2 0 1 4 4 1 2 -0 -0 -1 0 2 2 3 3 4 5 5 7
1 3 1 -4 -3 -1 1 -1 -4 -3 -4 -6 -9 -9 -7 -7 -8 -7 -7 -9 -8 -9 -8 -5 1 -2 0 2 2 3 3 4 2 3 0 -3 -1 2 2 4 4 4 5 6 7
1 1 4 3 -0 1 0 -4 -5 -3 -4 -6 -9 -8 -9 -8 -8 -7 -6 -9 -10 -8 -8 -4 0 -0 0 3 3 3 3 2 1 1 0 -2 -1 0 5 4 3 3 5 6 7
4 1 4 0 1 -3 -3 -2 -3 -4 -6 -7 -6 -8 -9 -9 -8 -8 -8 -8 -10 -11 -7 -5 -1 1 -1 -5 -4 -2 -1 0 4 6 0 -3 -1 1 4 3 3 3 5 6 9
4 5 4 5 -0 -2 -2 -3 -4 -4 -5 -6 -5 -6 -7 -9 -8 -8 -8 -10 -8 -9 -7 -5 -2 2 -1 -5 -5 -3 0 -0 -1 -3 1 -1 -1 1 4 5 5 4 6 7 9
5 4 4 4 3 -3 -3 -4 -4 -0 -2 -2 -4 -6 -6 -7 -9 -7 -7 -10 -8 -9 -7 -4 -2 -0 1 -2 -3 -0 -1 -1 -2 -1 -1 -4 -5 -4 6 7 8 8 7 7 10
5 6 6 4 3 1 -1 -1 -3 1 1 2 -3 -5 -3 -7 -8 -6 -8 -7 -8 -5 -7 -6 -1 -2 -2 -6 -5 -2 -4 -5 -3 -5 -3 -4 -5 3 10 10 10 9 9 9 10
5 6 6 6 6 5 5 3 1 2 3 -1 -1 2 2 -3 -2 -3 -7 -7 -5 -3 -6 -8 -2 -2 -1 -6 -7 -5 -6 -6 -5 -5 -4 -5 1 10 12 11 10 11 12 13 13
6 6 6 6 5 4 3 5 5 6 5 6 6 5 2 1 4 5 3 -4 -5 -4 -6 -7 -6 -2 1 -4 -4 -2 -3 -5 -4 -5 -5 -2 6 10 12 13 13 13 14 14 14
Wind_Speed
14 15 16 15 15 15 16 14 12 11 10 9 8 6 5 6 7 8 5 3 5 1 4 4 6 4 2 0 1 2 0 7 7 8 8 10 11 6 5 13 7 6 13 18 18
16 15 16 17 16 16 16 15 14 12 11 9 8 6 5 6 8 10 7 6 5 1 2 4 4 7 3 1 1 4 4 7 5 7 9 11 8 8 11 9 11 16 18 19 17
16 17 16 18 17 18 17 16 15 12 11 9 7 5 4 5 5 8 10 8 7 5 2 4 3 6 2 1 3 3 7 4 5 5 10 10 8 6 10 4 15 20 21 18 16
16 17 18 18 19 19 18 17 15 13 11 9 7 5 3 4 9 9 13 10 8 5 2 3 4 3 1 3 3 4 6 4 8 8 10 9 9 7 4 11 15 18 19 18 16
17 17 18 19 19 19 19 17 16 14 10 8 6 4 4 6 5 12 15 13 10 5 3 3 4 1 3 4 5 7 7 8 9 9 9 9 8 9 7 12 14 17 17 17 15
18 18 18 19 19 20 20 18 16 13 9 8 5 4 4 11 9 12 17 16 10 6 3 2 1 2 4 4 3 5 10 10 7 9 8 7 9 9 9 15 16 17 17 15 13
18 19 19 19 20 20 20 18 15 11 8 7 5 5 7 7 7 12 17 15 12 6 4 1 2 6 1 6 6 6 7 8 8 7 4 8 7 3 15 17 17 18 16 14 13
19 20 20 19 20 20 19 15 12 8 6 5 5 5 6 11 9 12 19 17 13 7 4 3 3 4 2 8 6 3 3 4 8 8 6 6 9 9 16 18 18 18 17 15 14
20 20 20 19 19 19 18 13 8 4 4 4 4 3 4 11 9 10 14 12 12 8 5 4 2 2 5 6 7 3 8 6 6 7 6 10 6 12 17 17 17 18 18 16 14
20 21 19 18 18 18 13 8 3 3 3 3 4 4 7 11 9 10 15 12 12 11 8 7 5 6 5 5 8 7 5 4 1 7 8 9 5 11 19 18 18 17 17 16 16
21 21 19 16 17 16 9 1 5 3 8 5 3 4 6 5 12 12 13 13 12 14 13 7 9 1 8 6 5 3 3 5 4 5 5 5 5 9 19 19 16 16 17 17 17
21 21 19 15 15 10 3 1 2 4 7 14 12 11 7 5 12 14 15 16 17 15 11 8 11 6 2 2 3 3 3 9 5 3 6 3 2 6 17 18 18 17 17 18 17
20 20 18 14 14 6 5 3 4 4 7 9 11 10 10 11 18 18 19 13 18 20 15 15 9 5 3 1 7 7 9 8 6 3 4 5 7 7 11 14 15 18 18 18 19
18 18 17 12 5 5 4 6 9 3 5 12 11 10 12 13 11 18 19 14 9 17 17 15 11 6 6 4 7 8 5 3 3 9 6 9 11 6 8 12 16 19 20 21 21
16 17 15 11 7 4 6 6 6 4 8 18 12 12 20 21 19 15 15 12 16 12 8 12 10 10 11 5 4 6 2 4 5 2 6 6 4 7 6 8 13 19 20 19 20
15 16 13 11 10 8 7 5 4 7 7 10 13 16 18 24 15 21 16 13 7 12 13 12 3 6 2 3 2 1 6 7 4 5 11 6 5 8 7 7 9 12 15 16 14
14 15 14 11 4 8 5 3 6 11 5 10 18 23 24 21 16 15 21 19 14 16 13 17 12 5 6 7 4 7 13 2 0 5 9 4 3 9 8 6 5 7 7 9 11
15 12 14 12 10 12 5 8 11 5 9 2 16 23 22 22 15 18 20 20 21 19 12 15 16 17 9 11 9 5 10 3 1 4 9 2 6 7 5 5 5 4 4 4 5
13 9 10 10 11 13 10 12 7 6 3 10 15 22 18 21 9 16 19 22 17 17 10 13 10 7 5 4 11 7 6 9 3 4 2 3 7 6 4 7 6 4 4 4 4
9 5 6 9 10 12 10 12 1 0 1 6 17 19 21 21 14 17 18 20 20 18 15 9 13 6 8 7 4 8 4 5 2 2 3 8 2 9 7 7 6 6 5 6 5
4 5 4 9 13 12 11 10 4 3 2 4 8 14 19 21 18 19 17 10 19 18 14 5 11 10 10 11 12 6 8 5 2 5 2 1 8 7 5 5 2 6 5 6 7
2 4 7 16 10 13 12 5 1 5 4 2 3 4 14 18 19 17 15 15 26 23 19 10 12 12 12 6 3 5 8 10 8 9 2 6 9 7 6 7 3 1 3 2 4
3 2 5 6 7 10 5 8 4 6 3 2 3 3 4 13 14 16 13 13 17 19 18 12 8 9 10 9 5 7 10 9 4 2 4 6 8 5 8 9 7 5 3 3 6
4 4 6 8 6 7 11 13 10 5 5 3 1 2 6 10 11 15 12 7 15 24 18 14 10 11 10 8 8 8 10 10 11 6 8 3 9 8 7 7 8 7 4 3 4
3 3 4 7 8 7 8 7 12 7 5 3 4 1 1 10 14 9 16 11 9 7 10 16 16 11 9 4 2 10 12 10 10 6 5 12 5 6 6 6 7 8 8 6 4
4 4 1 1 3 8 5 7 9 7 4 7 3 2 2 5 3 11 8 12 10 8 11 14 11 13 15 5 6 9 7 8 5 5 3 3 5 4 6 7 8 10 11 13 12
5 4 3 4 6 8 6 5 5 3 3 2 2 4 3 6 5 6 8 5 2 9 14 14 12 9 14 11 9 11 12 11 8 6 4 8 9 9 10 11 12 12 13 13 12
Wind_Direction
357 354 349 349 349 343 340 338 332 325 317 312 312 293 264 240 222 218 236 205 196 346 20 119 142 176 191 181 206 260 238 57 51 38 114 139 132 88 112 125 80 81 107 135 146
350 350 345 343 343 340 338 334 329 320 315 309 311 294 269 245 230 221 215 196 182 206 148 196 205 193 225 156 96 310 16 48 28 63 118 159 143 124 146 123 113 113 119 134 144
347 343 343 339 338 335 335 331 324 317 313 305 307 290 276 243 231 203 196 195 205 229 273 276 227 199 208 210 67 50 44 62 64 79 113 139 136 131 145 127 146 140 142 146 148
341 341 337 337 333 331 330 327 319 312 308 303 296 281 259 204 209 184 187 199 210 221 267 271 203 228 319 68 83 120 60 87 98 114 122 133 129 136 111 97 142 146 146 150 151
335 335 334 332 329 326 325 324 315 307 303 296 283 262 235 232 233 177 177 194 209 198 232 252 218 225 60 94 79 97 103 94 114 127 126 124 139 131 91 135 142 147 150 151 148
330 330 331 328 328 324 324 321 312 301 297 284 262 238 225 235 216 188 177 186 194 190 217 270 236 125 101 47 354 95 100 102 125 123 138 140 130 153 125 142 146 156 159 156 153
326 326 327 327 325 322 324 320 309 297 288 268 240 228 240 225 216 192 179 174 188 195 212 184 169 293 106 105 113 130 125 132 126 142 139 144 148 138 147 155 155 165 166 163 165
321 321 324 326 323 322 324 319 308 291 276 245 214 213 248 224 194 184 178 177 182 179 135 128 138 101 4 120 149 176 209 171 137 162 159 231 126 133 157 165 164 170 171 174 179
315 318 320 323 321 319 322 318 303 282 243 207 184 200 215 197 187 179 172 176 172 174 167 144 171 90 170 226 159 149 70 88 147 208 165 219 107 157 168 172 171 177 180 183 187
309 314 317 319 319 318 317 305 286 274 220 189 210 219 224 184 178 172 183 164 170 173 178 201 219 228 194 327 47 35 56 123 76 177 203 201 197 163 179 183 177 182 187 196 199
306 309 312 315 314 319 320 258 273 231 217 239 164 280 151 181 171 175 178 169 178 197 214 202 254 101 27 36 43 36 12 38 107 160 243 197 190 175 187 192 191 195 195 205 211
302 305 306 311 310 307 325 311 85 287 285 232 243 251 232 185 173 173 172 182 191 203 219 201 236 89 4 11 342 349 21 47 135 143 253 145 232 179 190 200 200 202 208 214 217
298 300 301 307 307 254 263 208 315 326 252 182 209 222 194 184 183 175 180 195 197 210 206 230 81 132 225 240 299 97 10 18 10 184 201 288 128 141 189 206 214 219 222 223 225
293 295 297 305 301 262 243 247 324 207 245 158 192 205 187 186 184 171 186 187 201 212 212 233 140 210 250 295 323 78 1 338 337 329 48 325 107 126 162 204 218 226 227 231 230
285 284 286 291 266 284 235 284 323 158 210 150 149 158 177 195 153 182 185 194 202 201 197 208 207 225 247 29 332 43 302 323 318 343 206 65 96 108 159 204 217 222 228 228 231
286 286 284 285 271 246 238 304 166 222 201 158 150 171 172 197 188 162 188 214 245 210 220 224 169 248 352 114 308 178 243 235 236 252 68 31 323 119 129 131 173 206 220 229 233
289 281 274 260 229 203 264 198 206 231 143 162 170 169 180 182 174 187 188 193 192 199 201 216 212 178 219 239 185 215 247 184 105 106 65 53 259 75 124 143 109 140 176 208 220
289 279 265 253 237 237 237 217 224 186 184 145 169 177 186 178 191 192 193 198 211 208 196 205 206 215 197 245 299 227 312 347 167 33 99 174 55 88 111 145 165 200 158 146 194
300 287 259 246 226 218 216 210 197 181 97 180 177 178 186 177 176 187 201 198 187 217 215 196 204 121 193 204 241 145 224 23 230 160 215 60 132 114 195 229 216 179 173 177 185
320 260 222 213 202 187 224 225 123 307 288 224 186 191 183 184 188 194 190 204 195 202 235 205 186 178 152 169 193 292 91 210 212 98 32 108 90 81 92 119 127 147 146 134 130
322 230 244 200 174 202 210 188 211 194 264 244 206 190 197 184 199 195 179 186 201 193 208 251 217 144 168 213 173 179 217 234 40 328 345 157 95 44 60 51 61 124 123 112 129
260 211 148 150 197 208 214 182 165 189 186 201 236 241 211 184 199 200 207 212 193 187 194 215 211 165 190 106 4 300 235 198 243 147 46 309 95 80 63 62 50 118 144 134 156
296 97 174 178 210 200 159 191 231 209 196 169 161 256 212 197 196 209 200 192 195 186 193 185 225 173 170 174 172 226 201 235 295 351 133 298 109 81 72 77 75 74 98 172 179
288 182 169 207 285 242 189 204 194 203 257 274 330 228 188 188 203 192 195 159 191 199 198 193 218 232 192 199 162 177 187 208 234 189 144 270 122 132 58 46 43 41 55 130 161
291 68 350 189 196 220 207 176 201 191 211 218 172 180 222 181 188 198 198 137 172 169 191 214 227 220 244 67 242 196 176 190 227 290 261 136 175 67 30 26 42 53 63 80 91
330 325 237 258 212 214 170 197 198 166 242 166 198 81 21 146 346 144 197 199 166 177 187 210 225 208 228 190 234 220 187 190 201 208 215 211 136 59 83 90 83 77 73 71 67
355 330 300 139 196 216 180 152 163 210 164 317 5 285 194 98 351 313 289 306 6 184 188 193 215 198 218 194 193 216 200 190 180 194 255 216 103 131 110 92 81 82 77 70 61
Height
1523 1520 1518 1516 1514 1512 1510 1509 1507 1505 1503 1502 1501 1499 1498 1498 1499 1499 1499 1501 1500 1499 1499 1500 1500 1502 1502 1500 1498 1496 1491 1497 1497 1495 1505 1509 1511 1516 1517 1519 1522 1524 1524 1531 1535
1522 1520 1517 1515 1513 1511 1509 1508 1506 1504 1502 1500 1499 1498 1498 1498 1498 1498 1499 1499 1500 1500 1501 1502 1502 1502 1498 1498 1498 1493 1491 1497 1497 1496 1501 1509 1511 1515 1518 1521 1525 1527 1531 1534 1537
1521 1519 1516 1514 1512 1509 1507 1506 1504 1502 1500 1499 1498 1497 1497 1497 1498 1497 1497 1498 1499 1500 1501 1501 1500 1500 1496 1495 1497 1497 1497 1499 1500 1500 1504 1508 1512 1515 1516 1518 1523 1528 1532 1535 1538
1520 1518 1515 1512 1510 1507 1505 1504 1502 1500 1498 1498 1497 1496 1496 1497 1496 1494 1496 1498 1499 1500 1501 1501 1500 1497 1493 1492 1497 1498 1501 1502 1504 1506 1507 1510 1514 1515 1518 1519 1524 1530 1533 1536 1538
1519 1516 1514 1511 1509 1506 1503 1501 1499 1497 1496 1496 1495 1495 1496 1497 1494 1493 1496 1497 1498 1500 1501 1501 1498 1496 1493 1496 1497 1497 1502 1505 1507 1508 1509 1513 1514 1516 1520 1523 1527 1532 1535 1537 1539
1517 1514 1512 1509 1506 1504 1501 1498 1497 1495 1494 1494 1494 1494 1495 1494 1491 1492 1494 1497 1499 1500 1501 1501 1498 1497 1496 1498 1498 1502 1503 1507 1508 1509 1511 1512 1515 1517 1523 1525 1530 1533 1536 1538 1540
1515 1512 1510 1507 1504 1501 1499 1495 1494 1493 1492 1493 1493 1493 1494 1490 1490 1491 1494 1497 1498 1500 1501 1501 1500 1498 1498 1499 1503 1503 1505 1507 1509 1511 1513 1513 1518 1515 1522 1526 1530 1534 1536 1538 1541
1513 1510 1508 1504 1501 1499 1496 1493 1491 1490 1490 1491 1491 1493 1491 1487 1488 1490 1492 1495 1497 1499 1501 1500 1500 1500 1498 1501 1502 1500 1501 1509 1510 1511 1514 1513 1518 1518 1522 1525 1529 1532 1535 1538 1541
1511 1508 1505 1502 1499 1497 1494 1491 1490 1489 1490 1490 1492 1492 1487 1486 1488 1490 1492 1496 1498 1500 1500 1500 1500 1498 1499 1491 1492 1495 1503 1505 1511 1508 1510 1511 1512 1516 1522 1524 1527 1530 1533 1536 1539
1508 1505 1503 1500 1497 1494 1492 1490 1489 1489 1490 1491 1491 1495 1486 1485 1487 1489 1491 1495 1498 1499 1501 1500 1496 1489 1488 1483 1511 1503 1500 1502 1505 1506 1507 1509 1509 1514 1519 1522 1524 1528 1531 1534 1535
1505 1503 1500 1498 1496 1493 1491 1490 1492 1491 1488 1483 1484 1484 1482 1484 1485 1488 1491 1494 1496 1497 1493 1494 1492 1491 1493 1494 1496 1498 1497 1499 1501 1502 1504 1504 1505 1509 1515 1519 1522 1525 1527 1530 1532
1502 1500 1497 1496 1494 1492 1490 1491 1489 1490 1486 1483 1483 1482 1481 1482 1484 1487 1490 1492 1493 1492 1490 1495 1494 1491 1495 1496 1495 1494 1493 1499 1499 1501 1503 1502 1503 1503 1511 1515 1518 1522 1524 1526 1529
1498 1497 1494 1493 1493 1491 1489 1491 1488 1487 1486 1479 1480 1480 1481 1482 1480 1484 1488 1488 1488 1488 1490 1489 1489 1494 1495 1494 1493 1489 1493 1497 1502 1496 1497 1496 1507 1509 1510 1513 1516 1517 1519 1521 1523
1495 1493 1492 1492 1495 1490 1490 1487 1486 1486 1475 1471 1475 1475 1478 1480 1480 1483 1486 1488 1487 1486 1487 1486 1489 1494 1495 1494 1490 1493 1494 1495 1495 1491 1504 1491 1515 1507 1506 1509 1511 1513 1514 1515 1517
1494 1493 1492 1492 1488 1489 1489 1486 1485 1487 1483 1457 1467 1471 1473 1476 1474 1483 1486 1487 1483 1485 1490 1490 1491 1494 1495 1492 1492 1498 1493 1492 1491 1490 1488 1498 1495 1507 1505 1507 1503 1506 1507 1508 1511
1487 1486 1486 1485 1485 1486 1486 1485 1487 1484 1472 1459 1460 1466 1470 1471 1472 1477 1484 1486 1483 1482 1488 1480 1489 1488 1486 1493 1494 1494 1493 1489 1485 1484 1505 1500 1496 1498 1495 1493 1494 1499 1502 1505 1506
1483 1482 1482 1482 1486 1483 1484 1486 1479 1468 1453 1459 1455 1458 1461 1466 1469 1472 1477 1481 1484 1495 1493 1486 1487 1487 1490 1492 1491 1494 1484 1499 1505 1501 1514 1495 1493 1494 1489 1492 1492 1495 1499 1501 1504
1480 1477 1477 1478 1480 1482 1484 1481 1473 1448 1447 1447 1448 1453 1458 1460 1465 1468 1472 1477 1475 1475 1479 1493 1503 1483 1483 1489 1488 1488 1482 1496 1528 1515 1506 1495 1504 1496 1486 1492 1495 1497 1498 1500 1502
1475 1473 1473 1474 1475 1479 1482 1470 1455 1450 1452 1450 1451 1453 1455 1457 1462 1466 1467 1468 1471 1472 1480 1486 1487 1477 1483 1485 1486 1490 1493 1482 1491 1493 1497 1495 1490 1485 1486 1489 1491 1494 1497 1499 1500
1471 1472 1472 1470 1473 1477 1473 1459 1455 1457 1456 1454 1450 1445 1454 1457 1462 1463 1466 1463 1468 1472 1469 1473 1489 1477 1485 1487 1489 1483 1481 1495 1490 1520 1521 1505 1501 1498 1489 1488 1490 1493 1495 1497 1500
1469 1469 1467 1468 1472 1475 1461 1454 1457 1459 1460 1453 1445 1448 1444 1452 1456 1460 1462 1459 1464 1471 1474 1470 1469 1487 1485 1486 1482 1490 1489 1488 1484 1493 1510 1512 1504 1490 1493 1491 1490 1490 1495 1497 1500
1469 1462 1466 1467 1471 1461 1454 1456 1462 1457 1459 1457 1455 1444 1443 1444 1454 1454 1456 1455 1462 1466 1477 1471 1467 1485 1481 1477 1478 1475 1477 1480 1492 1509 1499 1500 1501 1488 1491 1493 1495 1495 1497 1499 1501
1470 1466 1468 1468 1457 1458 1456 1457 1459 1457 1456 1454 1451 1451 1449 1448 1457 1452 1451 1454 1461 1462 1470 1469 1472 1486 1487 1483 1481 1480 1478 1474 1473 1479 1503 1502 1501 1487 1490 1493 1497 1496 1498 1499 1499
1470 1459 1466 1467 1462 1451 1453 1453 1456 1460 1458 1457 1454 1453 1450 1449 1447 1453 1452 1459 1462 1463 1466 1468 1462 1472 1483 1476 1466 1484 1481 1479 1477 1487 1493 1491 1491 1484 1491 1493 1496 1497 1497 1498 1499
1470 1463 1464 1457 1458 1454 1453 1451 1452 1455 1458 1457 1454 1452 1448 1448 1448 1450 1448 1458 1462 1465 1466 1464 1472 1469 1464 1472 1473 1472 1478 1481 1484 1477 1490 1482 1487 1487 1493 1496 1498 1498 1498 1499 1500
1470 1468 1467 1463 1463 1458 1459 1453 1453 1455 1456 1453 1452 1455 1453 1446 1446 1451 1447 1448 1455 1465 1463 1461 1471 1466 1477 1474 1476 1479 1474 1477 1480 1482 1483 1484 1487 1493 1495 1497 1498 1499 1500 1502 1503
1473 1472 1471 1465 1459 1455 1452 1455 1455 1459 1459 1460 1460 1457 1454 1455 1460 1461 1458 1455 1452 1456 1459 1460 1464 1475 1484 1473 1479 1491 1478 1478 1479 1479 1478 1489 1481 1492 1496 1498 1500 1502 1504 1505 1507